Change the Weather History Date:

Tuesday, January 21, 2014

  Actual Average Record
Temperature  
Mean Temperature 19 °F -  
Max Temperature 30 °F 41 °F 61 °F (2002)
Min Temperature 8 °F 18 °F 8 °F (2014)
Degree Days  
Heating Degree Days 46    
Moisture  
Dew Point 1 °F    
Average Humidity 46    
Maximum Humidity 61    
Minimum Humidity 27    
Precipitation  
Precipitation 0.00 in - - ()
Sea Level Pressure  
Sea Level Pressure 30.33 in    
Wind  
Wind Speed 12 mph (WSW)    
Max Wind Speed 22 mph    
Max Gust Speed 28 mph    
Visibility 10 miles    
Events      
Averages and records for this station are not official NWS values.
T = Trace of Precipitation, MM = Missing Value Source: NWS Daily Summary

Daily Weather History Graph

Daily Weather History Graph

Search for Another Location

Airport or City:

Trip Planner

Search our weather history database for the weather conditions in past years. The results will help you decide how hot, cold, wet, or windy it might be!

Date:

Astronomy

Jan. 21, 2014 Rise Set
Actual Time 7:43 AM CST 5:42 PM CST
Civil Twilight 7:15 AM CST 6:10 PM CST
Nautical Twilight 6:43 AM CST 6:42 PM CST
Astronomical Twilight 6:11 AM CST 7:14 PM CST
Moon 11:10 PM CST (1/21) 10:19 AM CST (1/21)
Length of Visible Light 10h 55m
Length of Day
9h 58m
Waning Gibbous, 74% of the Moon is Illuminated
Jan 21
Waning Gibbous
Jan 23
Last Quarter
Jan 30
New
Feb 6
First Quarter
Feb 14
Full

Hourly Weather History & Observations

Time (CST) Temp. Windchill Dew Point Humidity Pressure Visibility Wind Dir Wind Speed Gust Speed Precip Events Conditions
12:52 AM 21.9 °F 8.7 °F 6.1 °F 51% 30.43 in 10.0 mi North 15.0 mph 27.6 mph N/A   Clear
1:52 AM 18.0 °F 0.9 °F 6.1 °F 60% 30.44 in 10.0 mi North 21.9 mph 27.6 mph N/A   Clear
2:52 AM 15.1 °F -0.1 °F 3.0 °F 59% 30.46 in 10.0 mi North 15.0 mph 21.9 mph N/A   Clear
3:52 AM 12.9 °F -2.8 °F 1.0 °F 59% 30.48 in 10.0 mi North 15.0 mph 24.2 mph N/A   Clear
4:52 AM 12.0 °F -2.7 °F -0.0 °F 59% 30.50 in 10.0 mi North 12.7 mph - N/A   Clear
5:52 AM 10.0 °F -5.9 °F -2.0 °F 58% 30.51 in 10.0 mi North 13.8 mph - N/A   Clear
6:52 AM 9.0 °F -5.1 °F -2.0 °F 61% 30.53 in 10.0 mi North 10.4 mph - N/A   Clear
7:52 AM 8.1 °F -3.2 °F -2.9 °F 61% 30.51 in 10.0 mi North 6.9 mph - N/A   Clear
8:52 AM 10.9 °F 1.4 °F -2.0 °F 56% 30.51 in 10.0 mi NNW 5.8 mph - N/A   Clear
9:52 AM 12.9 °F 5.2 °F -5.1 °F 45% 30.50 in 10.0 mi Variable 4.6 mph - N/A   Clear
10:52 AM 15.1 °F 9.4 °F -7.1 °F 37% 30.47 in 10.0 mi Variable 3.5 mph - N/A   Clear
11:52 AM 19.9 °F 12.1 °F -9.0 °F 27% 30.41 in 10.0 mi SSE 5.8 mph - N/A   Clear
12:52 PM 23.0 °F 13.9 °F -7.1 °F 27% 30.35 in 10.0 mi SSW 8.1 mph - N/A   Clear
1:52 PM 26.1 °F 15.6 °F -4.0 °F 27% 30.29 in 10.0 mi South 11.5 mph - N/A   Clear
2:52 PM 28.0 °F 18.1 °F -0.9 °F 29% 30.22 in 10.0 mi South 11.5 mph - N/A   Clear
3:52 PM 28.9 °F 18.6 °F 1.0 °F 30% 30.20 in 10.0 mi SSW 12.7 mph - N/A   Clear
4:52 PM 30.9 °F 20.2 °F 3.0 °F 31% 30.18 in 10.0 mi SSW 15.0 mph - N/A   Clear
5:52 PM 28.0 °F 19.3 °F 5.0 °F 38% 30.17 in 10.0 mi SSW 9.2 mph - N/A   Clear
6:52 PM 26.1 °F 18.4 °F 7.0 °F 44% 30.18 in 10.0 mi SSW 6.9 mph - N/A   Clear
7:52 PM 26.1 °F 16.2 °F 8.1 °F 47% 30.16 in 10.0 mi SSW 10.4 mph - N/A   Clear
8:52 PM 26.1 °F 17.6 °F 8.1 °F 47% 30.13 in 10.0 mi SSW 8.1 mph - N/A   Clear
9:52 PM 25.0 °F 16.3 °F 8.1 °F 49% 30.13 in 10.0 mi SW 8.1 mph - N/A   Clear
10:52 PM 25.0 °F 17.1 °F 9.0 °F 51% 30.14 in 10.0 mi WSW 6.9 mph - N/A   Clear
11:52 PM 26.1 °F 18.4 °F 10.0 °F 51% 30.13 in 10.0 mi WNW 6.9 mph - N/A   Clear